ECMWFNIL_850_spd_102.txt.gz
Wind_Speed
16 15 14 13 13 14 14 13 12 11 11 13 14 12 8 4 2 2 2 2 2 2 2 3 5 5 6 7 8 8 9 9 10 11 11 11 11 11 12 12 13 13
14 14 14 15 15 15 14 12 11 11 12 13 13 8 3 3 3 3 3 2 2 2 2 3 5 6 6 7 7 8 8 9 10 11 11 11 11 11 11 12 12 13
14 16 17 17 16 15 13 12 11 11 12 13 10 4 3 4 4 4 3 2 2 1 2 4 5 5 6 6 7 7 8 9 10 10 11 11 10 10 11 11 12 13
17 18 18 16 15 13 12 12 11 10 12 11 5 3 5 5 4 3 3 3 2 1 2 4 4 4 5 5 6 7 7 8 9 10 10 10 10 10 10 11 11 12
18 18 17 15 14 13 11 11 10 10 11 8 3 5 5 5 4 4 3 2 2 1 2 3 3 3 4 5 6 6 7 8 9 9 10 9 9 9 9 10 10 11
18 17 15 14 13 12 11 10 10 11 10 5 4 6 6 5 4 4 3 2 2 1 1 2 2 2 3 4 5 6 8 8 8 9 9 9 9 8 8 9 9 11
18 17 15 14 13 11 10 10 10 10 7 4 6 7 6 5 4 3 3 2 2 2 2 2 1 2 3 4 5 7 7 8 8 8 8 9 8 8 8 8 9 11
18 16 15 14 13 12 11 11 11 10 6 6 7 7 6 5 4 3 3 3 3 2 2 2 1 1 2 4 5 6 7 7 8 8 8 8 7 7 7 7 9 11
16 15 15 15 14 13 12 12 11 8 6 7 7 6 6 5 5 4 4 4 4 3 2 2 1 1 2 3 5 5 6 7 8 7 7 7 6 6 7 8 10 11
16 16 16 15 14 14 13 13 11 7 8 8 7 6 6 6 6 6 5 5 4 3 2 2 1 1 2 3 4 4 6 7 7 6 5 6 6 7 8 9 10 12
17 17 16 15 15 15 14 12 10 8 9 9 7 7 6 7 7 7 6 5 4 3 2 1 1 0 1 2 3 4 5 6 6 5 5 6 7 8 9 10 11 13
18 17 16 16 16 15 13 12 10 10 10 9 8 7 7 7 8 7 7 5 4 3 2 2 1 0 1 1 2 3 5 5 5 5 5 6 7 9 10 11 12 13
17 17 17 17 15 14 13 12 12 11 11 10 8 8 8 8 8 7 6 5 4 3 3 2 2 1 1 1 2 3 4 4 5 6 6 6 7 9 10 11 12 14
17 18 17 16 15 14 14 13 12 12 11 10 9 9 8 8 8 7 6 5 5 4 4 3 2 2 1 0 1 2 3 4 5 6 7 7 8 8 9 10 12 13
18 19 18 17 16 15 14 14 13 13 12 10 10 9 9 8 8 6 5 5 5 5 5 4 3 3 2 0 1 2 2 3 5 6 6 7 8 8 9 10 11 13
20 20 19 18 17 15 15 15 14 13 12 11 10 8 8 8 7 6 6 6 5 5 5 4 4 3 2 1 0 1 1 2 4 5 6 6 7 8 8 9 11 12
21 21 20 19 17 16 15 15 14 14 12 11 9 8 8 8 7 6 7 6 6 6 5 5 4 4 3 2 1 1 1 2 3 4 5 5 6 7 8 9 10 11
21 22 21 20 17 15 14 15 14 13 12 11 9 9 8 8 7 7 7 7 7 7 6 5 5 4 4 3 2 2 1 1 3 3 4 4 5 6 7 8 9 10
24 24 22 20 16 14 14 15 15 13 12 11 10 9 9 8 8 8 8 8 8 7 7 6 6 5 4 4 3 2 1 2 3 3 3 4 4 5 6 7 8 10
26 25 23 20 17 16 17 17 15 14 13 11 10 10 9 9 9 8 8 8 8 8 7 7 6 6 5 4 3 2 1 1 2 3 3 3 3 4 5 7 8 9
26 25 23 20 18 18 18 17 16 15 13 11 10 10 10 9 9 8 9 9 9 9 8 7 7 6 5 4 3 1 0 1 2 3 3 3 3 4 5 6 8 8
25 24 22 20 20 20 20 19 17 15 13 12 12 11 11 10 10 9 9 9 9 9 8 7 7 6 5 4 3 1 0 1 2 2 2 3 3 4 4 6 7 8
25 23 21 21 22 22 21 19 17 15 13 12 12 12 12 11 11 11 10 10 10 10 9 8 7 6 5 3 2 1 1 1 1 2 2 3 3 3 4 5 6 7
23 22 21 21 23 23 21 19 18 16 13 12 12 11 11 12 11 11 12 11 11 10 9 8 7 6 5 3 2 2 0 1 1 2 2 2 3 2 3 4 5 7
22 21 21 21 22 23 21 19 18 16 14 13 12 11 11 12 12 12 12 12 12 10 10 8 7 5 4 3 2 1 1 1 1 1 2 2 2 2 2 3 4 6
20 20 21 21 22 23 21 19 18 17 15 15 14 13 12 12 12 13 12 12 11 11 10 9 7 5 4 2 2 1 2 2 1 1 2 2 2 2 3 3 4 6

ECMWFNIL_850_spd_105.txt.gz
Wind_Speed
14 12 11 10 9 9 9 9 9 10 12 14 14 13 6 2 5 6 7 6 5 5 5 5 6 7 8 10 10 10 10 11 11 13 12 12 12 12 12 12 13 14
14 13 12 11 10 10 11 10 10 11 14 14 14 9 1 6 6 7 7 6 5 5 5 6 6 7 8 10 10 10 10 11 12 12 11 11 11 11 12 13 13 14
14 13 13 12 12 13 12 10 11 13 14 13 11 3 6 8 7 8 7 6 5 5 5 6 6 7 8 10 10 10 10 10 11 11 10 11 11 11 12 13 13 14
15 14 13 13 14 15 12 10 12 14 12 11 6 4 9 8 8 8 7 7 6 5 5 6 6 7 9 10 10 9 9 9 10 11 10 11 11 11 12 13 13 14
14 14 13 15 17 15 12 13 14 12 10 8 3 9 10 8 8 8 7 7 6 6 6 6 7 8 9 9 9 8 8 9 10 10 9 10 11 11 12 12 13 14
14 15 17 18 17 14 14 15 12 9 9 6 7 11 10 9 9 8 8 8 7 7 6 6 7 7 8 8 8 7 7 8 9 9 9 10 10 11 11 12 12 13
19 19 20 19 16 16 16 13 9 9 8 6 10 11 10 11 10 9 9 8 8 7 7 7 6 6 7 7 7 7 7 8 9 8 8 9 9 9 10 11 11 12
22 21 19 18 17 17 15 11 9 9 7 9 13 12 12 12 10 10 9 8 8 7 7 7 6 5 5 6 7 7 7 8 8 8 7 8 8 8 9 10 11 12
21 20 19 19 18 16 13 11 10 8 7 12 14 12 12 12 10 10 9 9 8 7 7 6 5 5 5 6 6 7 7 7 7 7 7 7 8 8 9 9 10 12
21 20 20 19 16 15 13 11 10 8 10 14 14 12 12 11 10 10 9 9 8 8 7 6 5 5 4 5 6 6 6 6 6 6 6 7 7 7 8 9 10 12
20 20 19 18 16 15 13 12 11 9 12 14 13 12 11 10 10 10 10 9 8 8 7 6 6 5 4 5 6 6 6 6 6 6 6 7 8 8 8 9 10 12
20 20 19 17 16 15 14 13 11 10 13 14 13 12 11 10 10 10 10 9 9 9 8 7 6 5 5 5 5 6 6 6 5 6 6 7 8 8 8 9 10 11
20 19 18 17 16 16 14 13 12 12 14 14 13 13 11 11 11 10 10 10 9 9 8 7 7 6 5 5 5 6 6 6 5 6 6 7 8 8 8 9 10 11
19 18 17 17 17 16 15 14 13 15 16 15 14 13 12 12 11 10 10 10 10 10 9 8 7 6 5 5 5 5 6 6 6 6 7 7 7 7 8 8 9 10
18 18 17 17 18 17 16 15 15 16 16 15 14 13 13 13 12 11 10 10 10 10 9 9 8 7 6 5 5 5 6 6 6 7 6 6 6 6 7 7 8 9
19 19 18 19 19 17 15 14 15 16 16 15 13 13 13 13 13 13 12 11 10 10 10 9 8 7 6 6 5 5 6 6 5 6 5 5 5 5 6 6 7 8
20 20 20 20 19 17 15 15 16 16 15 14 13 13 13 14 14 13 12 12 11 10 10 9 8 7 7 6 6 6 5 5 5 4 4 4 3 4 4 5 7 7
21 21 20 20 19 16 15 15 16 17 15 13 13 13 14 15 14 13 12 12 12 11 11 10 9 8 7 6 6 6 5 5 4 4 3 3 2 2 3 5 6 6
21 21 21 20 19 16 16 16 17 17 17 15 14 14 15 15 14 13 13 12 12 12 11 10 9 8 7 7 6 6 6 5 4 4 3 2 1 1 2 4 4 5
22 22 21 21 19 18 18 16 17 18 18 16 16 16 16 15 14 13 13 13 13 13 12 11 10 9 8 7 6 6 5 5 4 3 3 2 1 0 1 2 3 4
24 23 22 22 22 21 19 16 18 20 18 16 16 16 15 14 13 13 14 14 14 13 12 11 10 10 9 7 7 6 5 4 4 3 3 2 1 1 0 1 3 4
26 25 24 24 23 22 20 17 18 20 18 17 16 16 15 15 14 14 14 14 14 14 13 12 11 10 9 7 6 6 5 4 4 3 3 3 2 2 1 1 2 4
26 25 24 23 23 23 21 18 19 20 18 17 17 17 17 16 15 15 15 15 15 15 13 12 11 9 8 7 6 6 6 5 5 4 4 4 3 2 1 1 2 4
24 24 23 22 23 24 21 19 20 21 18 16 16 16 17 16 16 17 17 16 15 14 13 12 11 10 9 8 7 7 6 6 5 6 5 4 3 2 1 1 2 4
24 24 24 23 24 23 20 19 21 20 18 17 16 16 17 17 17 18 18 17 16 15 14 13 12 11 10 9 8 7 7 7 7 6 6 5 4 2 1 1 3 4
24 24 24 24 24 23 20 20 21 21 19 18 18 18 18 18 18 18 18 18 17 16 15 13 12 11 10 9 8 7 7 7 7 6 6 5 4 3 2 2 3 4

ECMWFNIL_850_spd_108.txt.gz
Wind_Speed
16 16 15 13 11 9 7 6 6 5 5 6 7 10 10 4 7 10 12 12 11 10 10 11 12 12 13 13 12 11 11 12 12 12 11 10 9 9 10 10 10 10
18 17 16 14 13 10 8 8 8 7 7 8 10 11 7 8 11 12 13 11 11 11 11 12 12 13 13 13 12 11 11 12 12 11 10 9 9 9 10 10 10 10
18 18 17 15 13 11 9 10 10 8 8 9 11 10 6 13 14 14 13 12 11 11 11 12 12 13 13 12 11 11 11 11 11 10 9 9 9 9 10 10 10 10
19 18 17 15 14 12 10 12 11 8 8 10 11 7 11 15 14 14 13 12 11 11 12 12 12 13 13 12 11 10 11 11 10 9 8 8 9 9 10 10 10 11
20 18 17 16 14 13 13 13 11 8 9 11 10 8 15 16 14 14 13 12 12 11 12 12 12 12 12 11 10 10 10 10 10 9 7 8 9 9 10 10 11 11
20 18 17 16 15 15 15 14 11 9 11 11 7 12 17 15 14 14 12 13 13 12 13 12 12 12 12 11 10 10 10 10 9 8 7 8 9 9 10 11 11 12
19 19 18 17 17 17 17 15 12 11 12 11 9 16 17 15 15 14 13 13 13 12 13 12 12 12 11 11 10 10 10 9 8 8 7 8 9 9 10 11 11 12
19 19 18 18 19 19 18 14 11 12 12 10 12 18 17 16 16 15 14 14 13 13 13 12 12 11 11 10 9 9 9 9 9 8 7 8 9 9 10 10 11 12
19 18 19 20 21 20 17 12 12 13 11 10 16 20 18 18 17 15 15 14 14 13 12 12 11 10 11 10 9 9 8 9 9 8 8 8 9 9 9 10 11 12
19 20 22 23 22 19 16 12 13 13 10 11 19 20 18 19 17 16 16 15 15 14 12 11 11 10 10 10 10 9 8 8 8 8 8 9 8 8 9 9 10 11
20 23 24 23 21 18 15 13 14 13 10 14 21 20 18 19 18 18 17 16 15 14 12 11 11 10 10 9 9 9 9 9 9 9 9 8 8 8 9 9 10 10
22 23 23 22 20 18 15 15 16 12 11 17 21 20 19 19 18 18 18 16 15 14 13 12 11 10 10 9 9 9 9 9 9 10 9 8 8 8 8 9 9 9
24 24 24 22 20 18 16 17 17 13 13 19 22 21 20 19 18 18 18 17 16 15 14 13 12 11 11 10 9 9 10 9 10 10 9 8 8 7 7 7 8 8
25 25 23 21 19 18 18 19 18 14 16 21 22 20 19 18 18 18 18 17 17 16 15 14 12 12 11 11 10 10 10 10 9 9 8 7 7 6 6 6 6 6
26 24 22 20 19 20 20 20 19 16 18 22 21 19 19 17 17 18 17 18 18 17 16 15 14 13 12 12 12 11 10 10 9 8 7 6 6 5 5 5 4 4
23 21 21 21 22 22 21 21 19 17 19 23 21 19 18 18 18 17 17 17 17 17 17 15 15 14 14 13 13 13 11 10 9 8 7 6 4 3 3 3 2 2
22 22 22 22 23 23 22 21 19 18 22 24 21 19 19 19 19 18 17 17 17 17 17 16 15 15 13 13 14 14 13 11 9 8 7 6 5 3 2 1 1 1
23 23 23 24 24 25 23 20 19 21 24 24 21 20 19 19 19 18 17 17 17 17 17 16 16 15 14 13 13 13 13 12 9 8 7 6 5 4 3 3 2 1
23 23 24 24 25 24 22 19 20 23 24 23 22 21 21 20 19 19 19 18 18 18 17 17 16 15 14 14 13 12 12 12 9 9 8 7 7 6 6 6 4 1
22 24 24 24 24 23 21 21 22 22 22 22 22 22 22 20 19 19 19 19 19 19 18 18 17 15 14 13 13 12 11 11 10 10 10 10 8 7 7 6 4 3
23 25 25 24 24 23 22 22 22 23 24 24 23 21 20 19 19 20 20 20 20 20 19 19 17 15 14 13 12 12 11 12 11 11 11 10 8 7 6 5 4 3
27 26 26 26 25 24 24 24 24 25 25 23 22 20 19 20 21 21 20 21 21 21 20 18 16 15 14 13 13 13 13 12 12 10 9 8 7 6 6 5 4 3
30 28 27 26 26 25 25 25 24 24 23 22 21 21 21 22 22 21 21 21 21 21 20 18 17 16 15 14 14 14 13 12 11 9 8 8 7 6 6 5 4 3
29 28 26 25 25 25 25 25 25 23 21 21 22 22 22 23 22 21 22 22 21 21 20 18 17 16 15 15 14 13 13 11 9 9 9 9 7 7 6 5 4 4
27 27 27 25 25 25 24 26 24 21 20 22 23 22 22 23 23 22 22 22 22 21 20 19 18 16 15 14 13 13 13 12 10 10 11 9 8 7 7 5 4 4
27 27 27 25 24 23 23 25 22 20 23 24 22 22 22 23 23 22 22 22 22 21 20 19 18 16 15 14 14 13 13 13 12 12 11 10 9 8 6 5 4 3

ECMWFNIL_850_spd_111.txt.gz
Wind_Speed
19 18 17 16 14 15 16 14 14 12 9 8 7 6 5 6 8 8 7 11 15 14 14 14 14 14 15 15 14 14 13 13 12 11 11 11 10 10 9 9 9 8
20 20 20 18 15 16 15 14 13 11 10 9 8 6 6 8 9 8 9 13 15 14 14 14 15 16 16 15 14 14 13 13 12 12 11 11 11 10 9 8 8 8
22 21 22 20 17 17 16 15 15 12 9 9 7 5 7 10 10 10 13 15 15 15 15 15 16 16 16 16 15 14 14 13 12 12 11 11 11 10 9 9 8 8
23 24 23 21 19 18 16 15 16 13 9 7 6 6 6 10 10 12 16 16 16 16 16 16 17 17 16 16 15 14 14 13 12 12 11 11 10 9 9 8 8 9
25 24 22 21 20 17 16 15 15 14 11 7 7 7 6 10 12 15 18 17 16 16 16 17 17 17 17 16 15 14 14 13 12 11 11 10 9 9 9 9 9 9
26 25 23 23 21 18 16 16 16 15 11 8 8 7 9 14 16 17 18 17 17 17 17 18 17 17 17 16 15 15 14 13 12 11 10 9 9 9 10 9 8 8
28 27 26 24 22 19 18 18 18 15 11 9 8 8 12 17 18 18 18 17 17 17 17 17 17 17 17 16 15 15 14 13 12 11 10 9 9 9 10 10 9 8
30 29 27 25 23 21 20 20 19 15 12 10 8 9 14 18 18 18 17 17 17 17 17 17 17 17 17 16 15 14 13 13 12 11 9 9 9 9 9 9 9 9
31 29 27 26 24 22 21 21 20 17 14 11 9 11 17 18 18 18 17 17 17 17 18 17 16 17 16 15 14 13 12 12 12 11 10 10 9 8 8 9 9 9
30 29 28 27 25 24 23 22 20 17 14 11 10 14 19 18 18 18 17 17 17 17 18 17 16 16 15 15 14 13 12 11 11 10 10 9 8 8 8 8 8 8
31 29 29 28 26 25 25 23 20 15 12 12 12 16 20 19 18 17 17 18 17 17 17 16 15 15 15 15 14 13 12 11 10 10 10 10 9 8 8 8 7 6
32 30 29 29 28 27 26 23 18 12 11 12 13 17 20 19 19 17 16 17 16 16 16 15 15 14 14 14 14 14 13 12 12 11 10 10 9 8 8 8 7 6
31 29 29 29 28 28 26 22 17 12 11 13 15 18 20 19 18 17 15 15 15 15 14 14 13 13 13 13 14 14 14 13 13 11 10 10 9 7 7 7 7 6
30 28 27 28 28 27 25 21 15 12 13 15 17 19 20 19 18 17 16 14 13 13 13 13 13 13 13 13 13 14 14 13 13 12 11 10 10 8 8 7 7 6
29 28 27 27 27 27 25 19 14 13 16 17 19 22 23 22 20 20 18 14 12 12 11 12 13 13 14 15 13 14 14 13 13 12 11 10 9 9 8 8 6 5
30 28 27 28 28 26 24 19 14 15 18 20 21 25 27 25 23 22 20 17 15 16 15 14 14 14 16 17 16 14 14 13 12 12 10 9 9 8 8 7 6 6
31 30 28 28 27 26 24 20 16 16 19 21 22 24 27 26 23 22 22 21 21 21 21 20 19 18 19 19 19 17 14 12 12 11 10 9 8 8 7 6 7 6
31 29 28 28 28 27 25 23 19 18 21 22 21 23 25 25 24 22 22 23 23 23 23 21 21 21 20 19 18 17 16 14 11 10 10 9 8 7 6 6 7 7
28 27 27 28 26 25 24 22 20 22 25 23 21 23 26 26 25 23 23 25 25 24 23 21 22 21 19 18 18 17 17 16 11 9 10 9 7 7 8 8 8 6
27 26 27 28 26 23 22 22 22 25 26 23 21 24 26 26 25 23 24 24 24 23 21 20 21 20 18 19 18 17 18 17 12 8 9 8 8 11 12 12 9 6
28 28 29 28 25 22 23 25 25 26 26 24 23 24 25 25 24 23 24 24 23 22 20 19 20 21 19 19 18 18 19 18 14 9 8 10 12 14 13 11 10 10
30 30 30 27 23 24 26 27 27 27 26 25 23 24 25 25 24 24 24 23 23 21 19 19 22 21 20 19 19 19 19 20 16 11 11 13 14 12 10 9 10 10
31 31 29 26 24 26 28 28 28 27 25 24 23 25 26 26 25 24 23 23 23 21 19 19 22 22 20 20 20 20 20 20 16 12 12 12 11 10 9 9 11 10
32 31 29 27 27 28 29 30 29 27 25 24 24 26 26 25 24 23 22 23 23 22 20 19 21 21 20 20 20 20 19 18 15 10 9 9 9 10 9 10 11 10
32 31 30 30 29 29 30 29 27 26 25 25 25 25 25 24 21 19 21 24 23 21 21 21 21 21 21 21 20 19 18 17 14 9 8 9 9 10 10 10 11 9
32 31 32 32 30 29 28 27 27 27 27 28 27 24 22 23 22 20 21 23 23 22 23 24 23 22 21 21 20 19 18 18 16 10 8 10 10 9 10 11 11 9

ECMWFNIL_850_spd_114.txt.gz
Wind_Speed
27 27 25 22 20 19 19 21 20 19 19 16 12 10 9 9 7 7 8 8 10 13 13 13 13 13 14 14 14 13 13 12 12 11 11 10 10 9 9 9 9 9
27 26 24 22 20 19 20 20 19 19 17 13 11 9 7 8 8 10 10 9 9 12 12 13 13 14 14 14 14 13 13 13 12 12 11 10 10 10 9 9 9 8
27 26 24 22 21 20 20 19 17 17 14 12 11 10 9 11 10 10 10 9 10 12 13 14 15 15 15 15 14 14 14 14 13 12 12 11 11 11 10 9 9 8
28 26 25 23 21 20 20 18 17 17 16 16 15 10 10 12 11 10 11 11 12 14 14 15 16 16 16 16 15 15 14 14 13 12 12 12 11 11 10 9 8 8
29 27 26 24 21 20 20 19 19 19 19 19 15 9 9 12 11 11 13 14 15 15 15 16 16 16 17 16 16 15 14 13 13 12 12 12 11 10 10 9 9 8
30 28 26 25 23 21 20 19 20 21 19 16 12 8 10 14 12 11 14 16 16 16 16 16 17 17 17 17 16 15 14 14 13 13 12 12 11 10 10 10 9 9
31 29 28 27 25 22 21 20 21 21 18 14 10 8 11 14 14 13 14 16 16 16 17 16 17 18 17 17 16 15 15 14 14 13 12 11 11 11 11 10 9 8
31 30 29 29 26 23 21 20 20 20 18 14 11 9 9 13 16 16 16 16 16 17 17 16 18 18 17 17 17 16 16 14 14 13 12 11 11 11 10 9 9 8
32 31 31 30 28 26 23 21 20 20 19 16 13 10 11 15 17 17 17 16 16 17 17 17 18 18 17 18 17 16 15 14 14 12 12 11 11 11 10 9 9 8
33 33 32 31 29 27 25 22 21 22 20 18 14 10 11 17 18 18 17 17 17 17 17 17 18 18 18 18 17 15 15 14 13 12 11 11 11 11 10 10 9 8
34 34 33 32 29 28 27 24 23 23 21 19 16 11 13 19 19 18 18 17 17 17 17 18 18 18 18 18 17 16 15 14 13 12 12 11 12 12 11 10 10 9
35 35 34 32 30 29 28 26 25 24 23 21 17 13 16 20 20 19 19 18 17 17 17 18 17 17 18 17 17 16 15 14 13 13 13 13 12 12 11 11 10 9
36 36 35 32 31 31 30 27 26 25 24 22 18 16 18 20 21 20 19 19 18 17 16 16 16 16 16 16 16 16 15 14 14 14 14 13 11 11 11 11 10 10
37 36 33 32 33 33 30 27 27 26 24 21 18 18 20 21 21 22 20 19 18 17 17 16 17 17 16 16 16 15 15 14 14 14 13 12 11 11 11 11 10 10
36 35 32 32 33 32 30 28 28 26 23 20 20 21 21 21 22 22 22 21 20 20 20 19 19 20 19 19 18 18 17 16 14 13 13 13 12 11 11 11 11 10
35 35 34 34 33 32 31 31 30 26 23 21 22 22 21 22 23 23 23 24 24 24 23 21 21 21 22 21 21 19 17 16 15 14 13 13 12 11 11 11 10 9
36 37 37 35 34 33 33 33 30 25 23 22 23 22 22 24 26 26 26 27 26 23 20 20 21 23 23 22 21 19 17 16 15 14 13 12 12 11 10 10 9 8
37 37 36 35 34 34 34 32 28 24 23 23 24 24 25 27 28 28 28 28 26 19 18 21 24 25 24 22 20 19 18 17 16 15 14 12 11 10 8 8 9 9
37 36 35 35 35 33 33 32 29 26 25 25 26 26 26 26 28 28 29 30 26 18 18 23 25 24 23 23 22 21 19 17 15 14 13 12 11 9 6 7 10 10
34 35 35 36 35 33 34 32 30 28 27 27 27 25 25 27 29 30 30 29 25 20 19 23 25 24 24 24 23 22 20 18 15 12 13 12 10 9 10 12 14 11
33 35 37 37 35 33 34 33 31 30 29 28 26 25 25 27 30 31 30 28 26 22 21 22 24 25 25 24 23 23 22 20 18 15 14 13 12 13 17 18 16 12
32 36 37 37 35 35 35 34 33 32 29 28 26 24 24 25 27 30 30 28 27 25 22 22 24 25 24 22 23 24 23 22 20 17 14 13 15 18 19 17 15 14
33 35 36 36 35 35 35 35 34 32 30 29 27 25 24 23 25 28 29 27 26 24 22 22 23 23 22 22 23 24 24 25 22 18 15 15 18 18 15 14 15 14
31 32 33 34 34 33 35 35 33 31 30 29 28 25 23 23 24 26 26 24 23 23 23 22 22 22 21 21 22 23 24 26 24 19 16 16 17 15 12 13 14 13
29 30 31 33 32 30 31 32 30 29 29 29 27 24 22 22 24 25 24 22 22 23 22 21 22 22 22 21 22 23 24 25 25 19 13 12 12 12 11 13 14 13
29 29 29 30 30 28 29 29 28 28 28 28 25 22 21 22 23 23 22 22 22 23 22 23 23 23 22 21 21 22 23 24 24 19 12 9 10 11 11 12 14 13

ECMWFNIL_850_spd_117.txt.gz
Wind_Speed
33 33 30 29 27 24 21 19 21 24 24 23 21 20 18 18 19 19 18 17 16 15 14 14 13 12 11 11 11 11 11 12 12 12 12 11 10 10 10 9 9 8
34 33 31 29 27 24 23 21 21 24 24 22 21 20 18 16 17 18 18 16 13 12 12 13 13 12 11 10 11 11 12 12 13 13 12 11 11 10 10 9 8 7
35 34 32 30 28 26 24 22 21 23 23 22 22 20 17 15 14 15 15 14 11 10 11 13 13 12 11 11 12 12 13 13 13 13 12 12 11 11 10 8 7 6
36 34 33 30 28 26 24 23 22 23 23 23 22 19 16 15 13 13 13 13 11 10 12 13 13 12 12 12 13 13 14 13 13 13 12 12 11 10 8 8 7 7
36 34 32 30 28 26 24 23 23 24 25 24 21 18 15 14 13 13 14 14 12 12 13 13 13 13 13 13 13 14 14 14 13 13 11 11 10 9 9 9 8 8
35 34 32 30 28 27 25 23 24 25 25 22 20 18 15 14 14 14 14 13 12 13 13 13 13 13 13 14 14 15 14 14 13 12 11 10 10 10 10 10 9 9
36 35 33 30 29 27 25 24 24 24 24 21 19 17 15 14 13 13 14 13 13 14 14 14 13 13 14 14 15 15 15 14 13 12 11 11 12 12 11 10 9 8
37 36 33 31 30 28 26 25 24 24 23 20 18 16 14 12 11 13 13 13 15 15 14 14 14 13 15 15 15 15 15 15 14 13 13 13 13 12 11 10 9 8
38 37 35 33 31 29 27 26 25 24 23 20 17 15 13 11 11 13 14 14 15 15 15 14 14 14 16 16 16 16 16 15 14 14 14 13 13 12 11 10 9 9
39 37 36 35 32 30 29 27 25 24 22 20 18 16 14 12 11 13 14 15 16 16 15 15 15 16 17 16 16 16 17 16 15 14 14 13 12 12 11 9 9 9
39 39 38 36 34 32 31 29 26 23 22 22 20 18 15 12 12 14 14 15 16 16 15 16 16 17 17 17 17 17 17 16 14 14 14 14 13 12 11 10 10 10
40 40 40 38 36 34 32 29 25 23 23 23 20 17 15 13 13 14 15 15 15 16 16 16 17 18 18 18 18 18 18 16 15 14 14 14 13 13 12 11 10 10
40 40 40 39 37 35 33 29 26 24 24 22 19 18 17 15 14 14 15 16 16 17 17 17 18 19 19 19 19 19 17 15 15 15 15 14 13 13 12 11 11 10
40 39 39 39 37 36 33 29 26 25 24 20 19 20 19 17 15 13 15 17 17 18 18 18 19 19 19 19 20 18 16 16 17 17 15 14 13 12 12 12 11 10
40 40 39 38 38 36 32 29 28 26 24 21 21 22 21 18 15 14 16 19 19 19 19 19 19 19 19 21 19 17 17 18 18 17 15 14 13 13 13 13 12 10
42 40 39 39 38 35 31 29 29 27 25 23 23 24 22 19 16 16 18 20 21 21 21 21 20 20 20 20 17 17 19 20 19 17 15 15 14 13 13 13 11 10
43 40 39 39 38 35 31 30 31 30 27 25 24 25 23 20 18 19 20 22 23 23 23 23 21 20 20 18 17 18 20 20 19 17 15 15 14 14 13 13 12 11
43 41 40 39 37 34 32 33 33 32 29 27 26 26 24 22 21 21 23 24 25 25 25 24 21 20 19 17 18 20 20 19 18 16 15 15 15 14 13 12 12 11
43 41 40 38 36 34 33 35 35 33 31 29 28 27 26 24 24 24 25 26 27 27 27 25 21 19 19 19 19 20 20 19 17 16 16 15 15 14 13 12 12 11
42 40 38 36 34 34 35 37 37 34 31 30 30 29 27 26 26 26 27 27 29 29 28 26 22 19 18 19 20 20 20 19 18 17 16 15 14 14 12 12 12 11
40 38 35 33 34 36 36 37 36 34 33 33 31 29 28 27 27 27 28 29 30 29 28 27 23 18 17 19 20 20 20 19 18 17 16 14 13 13 12 12 12 11
40 37 34 33 35 38 38 38 37 36 35 35 32 29 29 28 28 28 29 30 31 30 29 29 25 19 17 20 21 21 21 19 18 17 16 14 14 14 13 13 13 13
40 38 35 34 37 39 40 39 38 37 37 35 32 30 30 29 29 29 29 30 31 31 30 30 26 19 18 22 22 22 22 20 19 19 17 16 16 16 16 16 16 16
40 37 34 35 38 40 40 40 39 38 36 33 31 30 31 30 29 29 29 30 31 32 31 30 26 20 19 22 23 23 23 22 21 21 19 18 19 19 20 19 18 18
39 37 35 35 37 40 41 41 40 38 35 32 31 32 32 30 27 27 28 30 32 32 31 30 26 22 21 23 22 23 24 23 24 23 21 21 21 21 20 19 18 18
38 37 35 35 36 40 42 41 40 38 36 34 33 33 32 28 25 26 27 29 31 31 31 30 26 23 23 23 22 23 24 24 26 27 25 24 23 21 19 17 17 18

ECMWFNIL_850_spd_123.txt.gz
Wind_Speed
41 40 39 39 37 34 32 31 29 29 28 27 28 27 26 27 27 25 23 21 20 19 17 17 16 17 18 19 18 18 18 18 19 18 18 16 16 15 15 15 15 14
41 40 40 39 37 33 32 31 30 30 28 26 26 27 26 27 27 26 23 21 20 19 18 17 16 17 18 18 18 18 18 18 18 18 16 15 15 15 15 14 13 12
41 41 41 40 37 33 31 31 31 30 28 26 26 27 26 27 27 26 24 22 21 20 18 17 17 18 18 18 17 17 18 18 17 16 15 14 14 14 14 13 11 10
42 42 42 39 36 33 31 30 32 32 28 26 26 26 26 27 27 26 24 23 22 20 19 18 18 19 19 18 18 17 18 17 16 15 14 14 13 13 12 10 10 10
41 42 41 38 35 33 31 31 33 33 29 26 27 26 26 27 26 26 24 23 22 21 19 18 18 19 19 19 18 17 17 17 15 14 13 13 12 11 10 10 10 10
41 42 40 37 35 33 32 33 33 32 29 27 27 27 26 26 25 24 24 23 22 20 19 19 19 19 19 18 17 17 17 16 15 14 13 12 11 11 10 10 10 11
41 41 39 37 35 33 32 33 33 32 30 28 28 27 26 25 25 24 24 23 20 18 18 18 19 19 19 18 17 17 16 16 15 13 13 12 11 11 11 11 11 11
40 39 37 36 35 34 34 34 34 32 31 30 29 28 26 25 25 24 24 22 19 18 18 19 19 19 18 17 17 17 17 16 15 13 13 12 12 12 12 12 12 11
40 38 36 35 34 35 35 35 34 32 31 31 30 28 26 26 25 25 24 21 19 19 19 20 19 18 17 16 17 17 16 15 14 13 12 12 12 12 12 12 12 11
40 38 36 35 34 35 36 35 34 32 31 31 30 28 27 26 26 25 24 22 20 20 20 20 18 17 16 17 17 16 15 15 14 13 12 12 12 12 12 12 12 11
42 39 37 37 35 34 35 35 33 32 32 32 31 28 27 27 26 25 24 22 21 20 19 19 17 16 17 18 17 16 15 14 14 13 13 12 12 13 12 12 12 12
43 40 39 39 36 33 32 34 34 33 33 34 32 28 27 28 27 25 24 22 20 19 18 16 15 16 18 19 17 16 15 15 15 14 13 13 14 14 13 13 13 13
44 42 41 40 37 32 30 33 34 33 35 35 31 28 28 28 27 25 23 21 19 17 15 15 15 16 19 19 18 16 16 16 16 15 14 14 15 15 14 14 14 13
44 42 41 40 38 33 30 32 34 34 36 34 30 29 29 27 26 24 22 21 18 16 15 15 15 17 20 20 18 17 17 16 16 15 15 15 16 16 15 15 15 14
44 42 41 40 39 34 30 32 35 37 37 33 29 29 29 27 25 24 22 20 17 15 15 15 15 18 20 20 18 17 17 17 16 16 16 16 16 16 16 16 15 14
44 42 42 42 41 36 33 33 35 38 38 33 30 30 29 27 26 25 23 20 17 16 15 15 16 18 20 19 17 17 17 17 16 16 16 16 15 15 16 16 15 14
44 43 42 42 41 39 36 34 35 39 39 33 31 31 29 27 27 27 24 20 18 18 16 15 16 18 20 19 18 17 17 16 16 17 16 16 15 15 16 16 15 15
44 44 43 43 42 41 38 33 35 42 40 34 31 31 30 29 29 28 24 20 19 19 17 15 15 17 19 19 18 18 17 16 16 16 16 16 15 15 16 16 15 15
45 45 45 44 43 41 36 31 35 42 40 34 32 32 32 31 30 28 24 21 20 20 18 16 15 16 19 19 18 18 17 17 16 16 16 15 14 15 16 16 14 13
45 45 45 44 41 39 35 33 36 40 40 37 33 32 34 33 30 28 26 23 21 19 19 18 16 16 18 18 17 17 17 17 17 17 17 16 15 14 15 15 14 13
45 44 44 43 40 37 36 37 39 41 42 40 35 33 35 34 30 29 28 25 22 19 19 19 17 16 17 17 17 17 17 18 18 17 16 16 15 15 16 15 14 13
44 43 44 43 40 39 39 39 41 45 47 43 35 33 36 36 32 31 29 26 22 21 20 20 18 17 16 16 16 16 17 19 19 17 16 16 16 16 17 16 15 14
43 42 44 44 42 41 40 39 43 47 47 41 36 36 39 38 34 33 31 27 24 21 20 20 19 18 17 16 15 16 18 20 19 17 16 16 17 17 18 17 15 15
42 41 43 44 42 41 40 39 40 43 43 41 39 39 40 39 36 34 31 29 26 22 21 21 20 18 17 17 16 18 19 19 18 17 17 17 18 18 18 17 16 15
40 40 43 45 42 39 40 41 42 43 45 46 42 39 39 39 37 34 31 31 29 25 22 22 21 18 17 17 18 18 19 19 18 17 17 19 20 19 19 18 17 17
40 39 44 47 42 37 39 45 48 48 48 46 41 38 38 38 35 33 32 33 31 26 23 23 22 20 18 18 18 19 20 20 20 19 18 19 20 20 19 19 19 18

ECMWFNIL_850_spd_129.txt.gz
Wind_Speed
42 41 41 41 41 40 38 37 35 33 30 29 29 27 24 21 19 17 15 14 14 15 15 14 14 12 12 12 13 13 12 11 11 11 12 12 13 13 14 15 15 16
42 42 42 41 41 40 37 36 35 33 30 27 27 27 23 20 19 18 16 14 14 15 15 14 14 13 12 12 13 12 11 11 11 11 12 13 13 13 14 14 15 15
43 42 43 42 41 39 37 37 36 33 30 27 26 25 23 21 20 19 17 15 15 16 15 15 14 13 13 13 13 12 11 11 11 12 12 13 14 14 14 15 15 14
45 43 43 43 41 39 37 37 36 34 31 29 27 25 23 23 21 20 18 16 16 16 16 15 14 13 13 13 13 13 12 11 12 12 13 13 14 14 15 15 14 13
46 43 43 43 41 40 38 37 36 34 32 30 28 25 24 24 23 22 20 17 16 17 16 16 14 13 13 14 14 13 13 12 12 13 13 13 13 14 14 14 13 12
47 44 42 43 42 41 39 38 37 35 33 30 28 26 25 25 24 23 20 17 17 17 16 15 14 13 14 14 14 14 13 13 13 13 12 12 12 13 13 13 12 12
49 46 43 43 43 41 39 39 37 35 33 31 29 27 27 26 25 23 21 18 18 18 16 15 14 14 14 14 14 14 14 13 13 12 12 12 12 13 13 13 13 12
49 48 45 43 43 41 40 40 38 35 33 32 30 28 27 27 25 24 21 19 19 18 16 15 14 14 14 15 14 14 13 13 12 12 12 12 13 13 14 14 13 12
49 48 47 45 43 42 42 41 39 36 33 32 31 29 28 28 26 23 21 20 19 19 17 15 15 15 15 15 14 13 13 12 12 12 11 12 13 14 14 14 13 13
50 49 48 47 45 43 43 42 40 36 34 33 31 30 30 29 26 24 22 21 20 19 17 16 16 15 15 15 13 12 12 12 12 12 12 13 14 15 15 14 14 13
50 49 48 48 46 44 44 44 42 37 34 33 32 31 31 30 27 25 25 23 22 20 18 16 16 15 15 15 13 12 12 12 12 12 13 15 16 16 15 14 14 13
50 49 48 48 47 46 45 45 43 38 35 34 32 32 32 31 28 27 26 25 23 20 18 16 15 15 16 14 13 13 13 13 12 13 15 16 17 17 16 15 15 14
50 49 48 48 49 48 46 46 44 38 35 34 33 33 34 32 29 28 26 25 24 21 18 16 16 17 16 15 14 14 14 14 13 15 17 18 18 17 17 17 16 15
50 49 47 49 50 48 47 47 44 39 35 33 33 34 35 33 30 28 27 25 24 22 18 17 17 18 17 16 15 15 15 14 15 16 18 19 19 18 18 17 17 16
48 48 48 49 51 48 47 48 45 39 35 32 32 34 35 33 30 28 27 26 24 22 20 19 19 18 17 16 15 15 15 15 16 18 19 20 20 19 19 18 18 17
45 47 49 50 50 48 48 49 45 39 34 30 31 33 34 33 31 29 28 27 26 24 22 21 21 19 18 17 16 16 15 15 17 20 20 21 21 20 20 19 18 18
42 46 49 48 48 47 48 48 45 39 34 31 31 32 33 34 33 31 30 28 27 25 23 22 21 20 19 18 17 16 15 16 19 21 21 22 21 20 19 19 19 19
42 45 47 47 47 47 48 47 44 39 34 33 33 32 32 34 34 33 31 30 29 27 24 23 21 20 19 18 17 16 15 17 20 21 22 22 21 20 20 19 19 18
43 44 46 47 47 47 47 45 42 38 35 35 35 33 33 33 34 33 32 30 30 29 27 23 21 21 19 18 17 15 15 18 21 22 21 21 21 21 21 20 19 18
43 44 46 47 46 46 45 44 41 38 36 35 35 36 37 35 33 33 33 33 32 30 28 24 22 22 21 19 17 15 15 19 22 22 22 21 21 21 21 21 19 18
43 45 46 46 45 44 44 43 41 38 35 35 37 39 39 37 34 32 32 34 33 30 27 24 22 23 22 20 17 15 15 19 22 22 22 22 22 22 21 20 18 17
45 45 45 45 45 45 44 43 41 37 34 35 38 41 42 39 33 30 32 34 34 31 28 24 23 24 24 21 18 16 16 19 22 23 23 23 23 23 22 21 19 17
45 45 46 45 45 45 45 44 41 37 34 35 38 42 45 42 34 30 32 34 33 33 30 26 25 28 26 23 20 18 17 18 21 23 23 24 25 24 23 23 21 19
44 45 45 45 45 45 44 43 40 36 33 33 38 42 43 41 36 31 32 32 33 34 32 27 28 30 28 24 23 20 18 17 19 22 24 25 25 24 23 23 21 18
43 44 44 44 44 44 43 40 39 39 34 31 35 39 40 39 37 33 32 32 33 35 33 29 30 31 29 26 24 22 18 17 19 22 25 26 26 25 24 24 21 19
42 43 43 43 42 42 41 38 36 38 36 32 32 35 37 40 42 39 35 32 32 35 35 32 31 31 29 26 25 22 19 19 21 24 26 27 26 26 26 25 22 21

ECMWFNIL_850_spd_132.txt.gz
Wind_Speed
34 39 39 35 31 24 22 24 22 23 26 25 24 25 25 25 24 24 24 23 23 22 20 19 17 17 17 16 16 13 11 11 11 10 11 11 11 11 12 12 12 12
34 38 42 39 35 28 25 25 23 22 25 24 23 22 22 22 22 24 25 23 22 21 20 19 18 18 18 17 16 14 12 12 12 13 14 14 12 11 11 12 11 12
33 34 41 42 39 34 31 29 24 22 24 23 21 21 22 21 20 23 26 23 22 21 20 20 20 19 19 18 17 15 14 14 14 14 15 16 15 13 13 13 13 13
33 34 36 39 42 40 35 32 27 24 25 22 19 21 24 22 20 23 26 24 22 22 21 21 20 19 20 18 16 15 15 15 15 14 15 16 16 15 15 15 15 16
34 32 29 33 40 40 38 35 30 28 27 22 20 23 24 23 23 24 26 26 23 23 22 21 21 21 21 18 16 16 16 16 15 15 15 16 16 15 15 15 16 17
33 31 29 31 33 36 40 36 28 28 29 23 22 24 24 25 26 26 27 27 25 25 24 22 22 23 21 19 17 17 17 16 16 15 15 16 16 16 16 16 16 17
32 32 31 30 30 34 36 33 29 30 30 25 22 23 25 26 27 28 28 28 27 26 25 24 24 24 22 20 19 19 18 17 16 16 15 16 16 15 15 16 16 17
30 31 30 30 33 34 30 32 37 33 28 26 23 22 26 29 29 30 30 29 28 27 26 25 25 24 23 21 20 19 18 17 17 16 16 16 15 15 16 16 17 18
27 30 31 30 32 32 29 36 43 33 26 28 25 22 28 32 32 31 30 30 29 28 27 26 25 25 23 21 20 20 19 17 17 16 16 15 15 15 16 17 17 19
27 31 33 32 33 31 30 39 43 34 29 28 24 24 30 33 33 32 31 31 30 29 28 27 27 26 23 21 21 20 19 17 17 17 16 15 15 16 17 17 18 19
28 31 33 36 36 31 31 38 38 33 32 29 23 24 30 34 34 33 32 33 32 31 30 28 28 26 23 23 22 20 19 18 17 17 16 15 16 17 17 18 19 19
29 32 34 36 36 32 32 34 33 31 33 29 23 24 31 34 35 33 33 34 33 32 30 28 28 26 24 23 22 21 20 19 17 17 16 16 17 18 18 19 20 20
28 31 32 34 36 34 30 29 30 32 33 28 23 25 31 35 35 34 34 34 34 33 31 29 28 27 26 24 22 21 21 19 18 17 16 16 18 19 20 21 21 22
27 28 30 32 34 32 29 28 30 33 33 29 24 25 31 35 35 34 34 34 35 34 32 31 29 28 27 25 23 22 20 19 19 18 17 18 19 21 21 22 23 23
26 26 29 31 33 32 31 32 33 34 34 32 26 25 30 35 34 34 35 35 36 35 34 33 31 30 29 26 25 23 22 21 20 18 18 19 21 22 23 24 24 24
26 27 28 30 33 34 33 33 34 33 32 32 28 25 30 35 35 35 36 37 37 37 36 35 33 31 29 26 24 24 23 21 20 18 18 20 22 24 24 25 25 25
27 28 28 30 33 34 33 33 34 34 33 30 27 25 30 36 37 35 37 38 39 38 37 35 34 32 29 26 24 23 23 22 20 18 18 20 23 24 25 25 26 26
29 30 30 32 33 33 33 33 34 36 34 31 28 26 28 36 38 36 38 40 40 39 37 36 35 32 29 26 24 23 23 22 20 19 19 21 24 25 25 26 26 27
30 30 32 35 35 33 35 34 34 35 35 33 30 26 27 35 38 36 39 41 40 39 38 36 35 33 30 27 25 23 23 23 21 20 20 22 24 25 26 27 27 27
30 30 32 36 37 36 36 36 35 36 36 34 31 29 31 36 37 37 39 42 41 39 37 36 35 33 31 28 25 24 24 23 22 21 21 23 25 26 27 28 28 28
30 31 32 35 37 37 37 38 38 38 36 32 30 31 34 37 37 36 39 41 41 39 37 36 35 34 32 29 26 25 24 24 23 22 22 24 26 27 28 28 28 29
30 31 33 35 37 38 40 40 39 37 35 32 30 29 33 37 38 36 37 41 42 40 38 37 36 34 32 30 28 27 25 26 25 23 24 26 28 29 29 29 29 29
31 33 36 37 36 38 42 43 41 38 36 36 34 32 34 39 40 37 37 40 41 40 39 38 36 35 34 32 30 29 28 28 27 24 25 28 29 30 30 30 30 29
31 34 38 39 36 38 42 44 42 40 38 36 36 34 36 39 40 38 37 38 38 37 37 36 36 36 36 34 32 31 31 30 27 25 26 28 30 30 30 30 30 29
32 35 38 39 38 39 41 40 38 37 35 33 34 35 37 39 41 40 39 40 39 36 34 35 37 37 37 36 35 34 34 31 27 26 26 28 30 31 31 31 31 29
35 37 39 39 40 40 38 36 35 34 33 33 35 37 38 38 40 42 42 42 41 37 35 36 38 38 39 38 37 36 34 31 28 27 27 29 32 32 32 32 31 30

ECMWFNIL_850_spd_135.txt.gz
Wind_Speed
28 35 30 23 26 29 29 31 32 28 23 23 24 24 23 21 20 20 19 19 22 24 24 22 21 22 21 19 17 16 17 17 17 16 16 16 16 16 17 16 16 14
28 35 30 20 23 28 27 29 32 30 23 22 23 24 23 22 21 20 20 19 22 25 25 23 22 22 22 21 20 18 16 16 16 15 15 15 15 16 17 16 16 15
28 33 31 24 24 27 26 28 31 29 23 21 24 24 23 23 22 22 21 20 22 26 27 25 24 23 23 23 22 20 18 16 15 15 15 14 14 13 13 14 15 15
29 34 33 27 27 27 27 29 30 28 24 23 26 23 22 24 23 23 23 20 21 25 27 27 25 22 23 25 23 20 20 17 15 16 16 15 14 14 13 14 14 14
34 36 32 28 29 29 30 32 31 30 26 26 28 24 22 24 24 24 24 21 21 24 26 26 25 22 23 25 22 20 21 18 16 17 17 15 14 14 16 17 16 15
36 32 28 28 28 29 32 33 32 30 26 26 28 24 22 25 26 26 25 22 22 26 27 26 25 24 23 22 20 20 21 18 17 18 16 14 15 14 16 18 18 18
34 30 26 25 26 29 32 32 32 32 27 25 27 24 24 28 28 26 26 23 23 25 25 25 26 26 24 23 22 20 19 17 17 18 16 14 15 15 17 19 19 20
33 31 28 26 27 29 32 32 33 34 31 29 28 25 26 30 27 25 26 25 24 24 24 26 27 25 24 24 23 20 20 19 19 19 18 17 17 18 20 22 22 21
34 32 29 28 28 29 31 33 34 35 34 33 30 25 27 31 27 25 26 26 25 25 25 27 27 25 25 26 22 20 20 20 20 21 19 18 20 21 22 22 23 22
36 35 31 29 30 30 31 33 35 36 36 35 31 28 29 30 27 26 28 29 28 28 28 29 29 26 28 27 22 20 21 20 21 24 22 21 22 23 22 21 23 22
36 36 34 31 31 32 33 34 36 36 37 36 32 30 29 28 27 28 30 31 31 29 29 30 29 28 29 27 22 21 23 22 23 25 25 23 23 23 21 21 23 22
37 37 36 34 33 33 33 35 37 40 40 38 34 32 29 28 29 29 29 32 32 30 31 30 29 30 29 24 21 23 23 22 24 27 23 19 20 22 21 22 23 22
39 39 39 38 35 32 33 36 38 41 41 37 35 35 32 30 30 29 30 31 30 30 33 32 29 30 29 25 23 23 24 25 27 26 21 17 19 22 22 23 24 23
40 40 40 40 35 29 30 35 37 39 40 38 37 37 34 32 30 31 32 31 29 31 33 33 32 30 29 28 26 25 26 28 28 26 24 21 22 22 23 24 25 24
42 42 41 41 37 30 30 34 37 38 40 42 43 39 36 34 31 32 35 32 30 33 33 33 34 31 28 29 29 30 31 29 28 28 26 23 23 23 23 24 25 25
42 42 41 41 37 31 30 32 35 38 38 41 44 40 36 34 33 34 35 33 33 35 32 33 35 32 30 33 33 34 33 30 30 29 23 20 23 24 24 25 26 26
40 40 40 39 36 32 30 32 35 38 39 41 43 40 36 34 35 36 37 35 35 35 32 32 37 37 37 39 37 35 33 31 31 27 20 19 24 25 24 27 27 27
38 37 38 39 38 35 32 34 37 38 39 42 45 43 38 35 36 38 37 35 35 35 35 38 42 44 44 41 37 33 31 31 30 26 22 22 25 25 25 27 28 28
36 37 38 40 40 37 33 34 38 39 39 43 45 44 40 36 36 38 37 35 35 35 38 43 45 46 45 40 35 33 32 31 29 27 26 25 25 25 26 27 29 30
36 37 38 39 39 38 35 35 37 37 38 42 44 44 41 36 36 39 38 37 35 34 39 45 46 45 43 39 36 35 33 32 29 27 27 27 26 25 26 27 29 31
37 37 37 38 38 37 37 37 36 35 37 41 43 44 42 39 39 40 38 37 35 33 39 46 45 43 42 39 37 36 34 32 29 25 24 26 27 26 26 28 29 31
38 38 37 38 38 38 38 36 35 36 38 41 43 43 41 41 42 40 38 39 35 32 40 47 43 41 42 39 38 38 35 33 29 23 21 24 28 28 26 28 30 31
38 38 38 39 38 39 38 35 35 38 40 41 43 42 41 43 42 39 38 40 35 30 38 46 42 39 42 41 39 38 37 35 31 25 24 27 29 27 26 28 30 32
38 38 39 41 40 40 39 36 36 39 41 43 45 44 43 42 40 36 37 39 34 29 36 45 42 39 41 42 40 39 38 37 33 27 27 30 29 27 27 28 30 31
37 38 38 40 41 41 40 38 39 40 43 47 47 44 43 40 37 36 35 36 33 28 34 43 41 38 41 42 41 40 39 38 36 32 32 32 29 27 28 27 28 31
36 37 37 38 39 39 38 39 41 42 43 46 45 42 41 39 37 34 30 29 28 26 33 43 41 38 41 42 40 41 40 39 39 37 35 33 29 28 27 26 28 31

ECMWFNIL_850_spd_138.txt.gz
Wind_Speed
34 37 37 35 34 33 32 33 33 33 34 34 33 32 33 33 31 31 32 32 31 30 30 29 28 26 25 25 24 23 22 22 22 21 22 22 21 20 20 20 21 20
34 36 36 35 35 34 33 32 32 34 34 34 33 31 31 32 31 31 32 33 32 32 31 30 29 28 27 26 25 24 24 23 22 22 22 22 21 21 20 21 21 21
38 39 38 37 35 35 35 34 33 33 32 33 35 33 30 31 31 30 31 32 31 31 31 31 31 30 29 27 26 26 25 24 23 22 22 22 21 21 21 21 21 21
42 42 41 39 36 35 37 37 35 33 32 32 33 33 30 29 30 31 31 32 31 29 30 32 32 31 30 29 27 27 26 25 23 22 22 22 22 22 22 22 23 23
45 44 43 40 37 37 38 39 37 35 34 33 33 33 31 29 31 32 32 32 32 31 31 32 32 32 31 30 29 28 28 26 24 23 23 23 23 23 23 22 21 20
46 45 43 41 39 38 40 40 38 36 36 36 34 33 32 30 31 32 32 33 34 33 32 32 33 33 33 31 30 30 29 28 27 25 25 25 25 24 22 20 18 17
45 44 42 41 39 39 40 40 38 38 38 37 35 33 32 32 32 30 30 33 35 35 34 33 33 34 35 34 32 31 30 30 29 28 27 25 25 23 21 20 20 19
43 44 43 43 41 41 41 40 38 39 40 39 36 34 33 34 34 31 29 32 34 35 36 34 32 32 35 35 34 33 32 31 30 30 28 25 24 24 20 20 22 23
41 43 44 45 44 43 42 41 39 40 41 40 37 35 35 35 35 31 30 32 33 34 34 33 32 31 34 36 36 35 34 32 30 29 27 25 25 24 20 20 23 25
40 41 44 46 46 45 43 42 41 42 43 41 38 37 37 37 34 30 31 34 35 34 33 33 33 32 34 37 37 37 35 33 30 29 27 26 24 23 21 21 23 25
41 41 43 45 46 46 45 43 43 44 44 42 39 39 40 38 34 31 33 36 37 36 34 33 33 34 35 37 38 38 36 33 32 30 29 27 25 23 22 22 24 26
42 43 44 45 46 46 45 44 44 44 43 41 40 41 42 39 33 33 37 39 38 38 36 34 35 37 37 36 38 38 36 34 32 30 29 28 27 25 24 24 26 28
43 45 45 45 45 46 45 44 45 44 42 40 40 41 42 40 35 34 39 41 40 40 38 35 36 38 38 36 37 38 37 35 33 30 29 29 29 28 26 24 26 28
43 44 45 45 44 45 47 46 45 45 42 41 41 41 43 42 38 37 39 41 40 39 37 35 37 38 38 38 38 37 36 35 33 32 31 29 28 27 25 24 26 27
42 42 44 46 46 46 47 47 46 45 43 42 42 42 43 44 41 39 40 40 39 39 37 37 39 41 40 40 39 38 36 35 34 34 33 29 27 27 26 26 26 26
43 43 43 45 47 48 48 47 46 44 43 43 43 42 43 44 43 40 40 41 40 41 40 40 41 43 43 42 40 38 37 36 35 36 34 30 29 29 28 26 25 25
44 43 43 45 47 48 48 48 46 44 44 44 45 44 43 43 44 42 40 40 41 42 42 42 43 43 44 43 41 39 38 37 36 36 35 32 31 31 29 26 25 26
45 44 43 44 46 48 48 48 47 46 46 46 46 46 45 44 45 44 42 41 42 43 43 44 44 44 45 44 41 39 39 38 37 37 36 32 32 33 30 27 26 27
45 46 45 43 44 48 49 49 48 48 47 47 47 47 47 47 47 47 45 42 42 44 44 45 45 45 46 46 43 41 41 40 39 38 36 33 33 34 31 27 26 28
44 45 46 45 45 48 50 49 49 49 48 47 47 47 48 49 49 49 48 45 44 45 45 44 45 47 47 47 46 44 44 44 42 38 35 34 35 35 31 26 25 27
45 45 45 45 46 48 50 51 50 49 48 46 47 48 49 50 51 50 50 48 47 47 46 45 46 48 48 48 46 46 47 47 43 39 36 36 36 34 29 26 26 27
45 46 45 46 47 48 50 51 50 50 49 47 48 49 50 51 51 51 51 50 49 48 47 47 48 49 50 49 47 47 48 47 44 40 38 38 37 34 29 27 26 27
46 46 46 47 48 48 50 51 51 50 50 50 49 49 51 52 51 51 51 51 50 49 47 48 49 50 50 49 48 47 49 48 45 42 40 39 37 34 30 28 28 28
49 47 47 48 49 50 50 51 51 50 50 51 50 51 52 53 52 51 52 52 51 50 48 49 50 51 50 48 48 48 49 49 47 43 41 39 35 34 32 30 29 30
49 49 48 49 51 51 52 52 52 52 52 51 51 51 52 53 52 52 52 52 52 51 48 49 51 52 51 49 47 46 48 49 48 45 42 39 36 35 33 29 27 28
41 43 46 50 52 53 54 54 53 53 52 52 52 52 51 50 51 52 52 52 52 51 49 50 52 53 51 49 46 45 47 49 49 47 44 40 39 38 33 28 26 27

ECMWFNIL_850_spd_141.txt.gz
Wind_Speed
36 33 30 29 31 32 31 33 36 37 36 35 34 33 32 31 30 29 30 32 34 35 34 32 30 29 30 30 30 29 27 26 25 25 25 25 25 24 24 25 25 24
38 35 32 31 32 35 34 33 35 37 36 35 34 34 33 32 31 30 30 31 33 34 34 33 32 31 31 32 32 31 30 28 26 25 26 26 25 25 25 25 25 25
39 37 35 35 35 37 37 36 36 37 36 35 35 35 34 33 32 31 30 31 32 33 34 34 33 33 33 33 34 34 33 31 28 27 27 26 26 25 25 25 25 24
40 39 39 38 37 38 40 40 39 39 38 37 35 35 35 34 34 33 32 32 32 33 33 34 34 35 35 35 35 35 35 32 29 28 28 27 26 26 25 25 25 25
41 42 43 41 39 41 43 44 43 42 40 38 36 35 36 35 35 35 34 34 34 34 34 34 35 36 37 37 36 37 36 34 31 30 29 28 27 27 26 26 26 27
40 42 44 43 42 44 46 46 46 45 42 39 37 37 36 36 37 36 36 36 35 35 35 35 36 36 38 39 38 38 38 36 34 32 31 30 29 28 28 28 28 28
40 41 44 44 44 45 47 48 47 47 44 40 39 38 36 36 37 37 37 37 37 36 36 36 37 38 38 40 40 40 39 38 35 33 33 32 30 30 30 29 29 29
39 41 44 45 46 46 47 48 48 48 46 42 41 40 37 37 38 38 38 39 38 37 36 36 38 38 39 40 41 41 40 40 38 36 35 34 32 32 32 31 30 30
38 40 43 45 47 47 48 49 49 48 47 44 43 42 40 39 39 40 40 40 39 38 37 37 38 39 39 39 40 41 42 42 40 38 37 36 35 34 33 32 31 31
39 39 42 45 47 48 48 49 50 49 48 47 46 44 43 41 41 42 41 41 40 39 38 38 39 39 40 40 40 41 42 43 42 40 38 38 37 36 35 34 33 32
37 39 41 43 46 48 49 49 49 50 49 49 48 47 45 44 43 44 43 43 42 40 39 40 40 40 41 42 41 40 41 43 43 42 40 39 39 37 36 35 34 32
36 38 41 43 45 47 49 49 50 50 50 50 50 49 48 46 46 46 46 46 44 41 40 40 40 41 41 42 43 41 41 42 43 43 41 40 40 39 37 36 34 31
37 37 38 40 43 45 48 50 51 51 50 50 50 50 49 48 48 48 48 48 46 43 41 41 40 40 41 42 43 43 42 42 43 44 43 41 41 40 38 36 34 31
40 38 38 39 41 42 45 48 51 51 50 50 50 51 51 50 49 49 49 49 47 44 43 42 41 40 40 41 43 44 43 42 43 44 44 43 42 40 39 36 34 32
44 42 41 42 43 44 45 47 50 51 50 50 51 51 52 51 50 50 51 50 49 46 44 44 43 42 41 41 42 44 44 44 43 44 44 44 42 41 39 36 35 33
48 47 45 46 47 48 49 49 49 50 50 51 52 52 52 52 51 51 51 52 50 48 46 46 46 44 43 43 42 43 45 45 44 44 44 45 44 41 39 38 36 34
45 48 48 47 47 49 50 50 49 48 49 52 53 54 54 53 53 53 53 53 52 50 49 49 48 46 45 45 44 44 45 46 46 44 44 44 45 43 41 39 37 35
41 46 49 47 46 46 48 49 49 48 49 52 54 55 55 54 54 54 55 55 54 52 52 52 50 48 47 47 46 46 47 47 47 45 44 44 46 44 43 40 38 37
42 45 49 49 48 47 48 49 49 49 50 52 54 55 56 56 56 56 56 56 55 54 55 54 53 50 49 48 48 48 49 49 49 47 44 44 46 45 43 42 39 38
47 48 50 51 50 50 50 50 51 51 51 52 54 55 56 57 57 57 56 56 56 56 56 57 55 52 50 50 50 51 51 50 50 48 44 42 44 44 43 43 41 39
45 49 51 52 53 52 52 52 52 52 52 53 54 55 56 58 58 58 58 57 57 58 58 57 56 53 51 51 50 51 51 50 50 49 45 43 43 43 43 43 42 39
35 41 46 50 52 53 54 53 53 53 53 53 54 55 56 58 59 59 59 58 58 58 59 58 57 55 53 51 51 51 50 50 50 50 48 45 44 44 43 43 42 40
31 34 40 46 49 51 53 55 55 54 53 53 54 55 56 57 59 59 59 59 59 59 60 60 59 57 55 53 52 52 52 51 52 52 50 48 47 46 44 43 43 41
30 32 35 41 48 51 53 54 55 55 54 54 54 56 57 58 59 59 60 60 61 61 61 61 60 59 57 55 53 54 54 53 53 53 52 50 49 48 46 44 43 41
30 32 33 36 44 51 52 53 56 56 55 54 54 55 57 58 58 59 60 60 61 61 61 61 61 60 58 56 55 55 54 54 53 53 52 51 51 50 48 45 44 41
29 31 33 34 38 46 50 54 58 59 57 56 55 55 57 58 58 58 59 60 60 61 61 60 60 61 60 58 56 56 55 55 55 54 54 53 52 52 50 47 45 43

ECMWFNIL_850_spd_144.txt.gz
Wind_Speed
42 42 40 39 39 39 38 38 38 36 35 36 37 35 34 35 36 35 35 36 36 35 36 36 37 37 37 37 37 36 35 33 31 29 28 27 27 27 27 26 26 27
45 44 42 41 41 41 39 37 37 36 34 32 32 32 33 35 35 34 34 35 35 35 35 35 37 37 38 37 37 37 37 36 34 31 30 29 28 28 28 27 27 27
47 46 45 44 43 41 39 37 37 37 35 33 31 31 33 34 35 35 35 34 35 35 35 35 35 37 38 38 37 37 38 38 37 35 32 30 29 29 28 28 28 28
50 48 47 46 44 42 39 38 38 38 38 37 33 31 32 34 35 36 36 35 35 35 35 35 35 36 37 38 37 37 38 39 39 37 35 33 31 30 29 29 29 29
50 49 48 47 46 45 44 42 40 39 38 38 35 32 32 34 36 37 37 37 36 35 35 35 36 36 37 37 37 38 38 39 39 38 38 35 33 31 30 30 30 30
50 50 49 49 48 47 48 46 42 40 39 39 37 34 33 33 36 37 38 38 37 36 35 35 36 37 38 38 38 38 39 40 39 39 39 38 35 33 32 32 32 31
51 51 51 50 49 49 50 49 45 42 40 40 39 37 34 34 35 37 38 39 39 38 36 36 36 36 38 39 39 40 40 41 41 41 41 39 37 35 34 34 33 33
50 51 52 52 51 51 51 50 48 45 42 42 42 40 37 36 35 36 38 40 41 40 38 37 37 37 38 39 40 41 41 42 43 43 42 42 40 39 37 36 35 34
52 52 53 54 53 52 52 51 50 48 45 44 43 42 40 39 38 37 39 41 42 42 41 40 39 38 39 39 40 42 43 43 44 44 44 44 43 41 39 38 37 36
50 53 53 54 54 54 53 53 52 49 48 47 45 44 43 42 41 40 40 42 44 44 43 43 41 39 40 41 41 42 43 44 44 45 45 46 45 44 41 40 39 38
45 49 52 53 53 53 52 51 50 49 49 48 47 46 45 45 44 43 43 44 45 45 45 45 43 41 40 41 42 43 44 45 46 46 46 47 47 46 43 41 40 40
47 45 48 51 51 51 50 50 49 49 49 49 48 47 47 47 47 46 45 46 46 45 45 46 45 43 42 41 42 43 44 45 47 47 47 47 48 47 45 43 42 41
48 47 48 51 50 48 48 48 49 49 49 48 47 47 47 48 48 48 47 47 46 46 46 47 47 46 44 42 42 43 44 46 47 48 48 47 47 47 46 45 43 42
46 49 54 54 50 46 45 47 47 48 48 47 46 47 47 48 48 49 48 48 47 46 47 48 48 48 46 44 44 44 45 46 48 49 49 48 47 46 46 46 45 43
43 48 54 56 52 46 44 44 45 46 46 45 45 46 47 48 49 49 49 49 48 47 48 49 49 49 48 47 46 45 45 47 48 49 49 49 47 45 45 45 45 45
36 45 51 54 51 45 42 42 43 43 44 44 45 45 46 47 48 49 50 51 50 49 49 50 51 51 51 49 48 47 46 46 48 49 50 49 48 46 45 45 45 45
27 39 49 51 46 41 40 41 41 42 43 44 44 44 45 47 48 49 51 52 52 52 51 51 52 52 51 51 50 49 47 47 48 49 50 49 48 47 46 45 45 45
27 36 44 45 41 40 41 41 42 43 44 45 46 45 45 46 48 49 51 52 53 54 54 53 51 51 52 51 51 51 49 48 48 49 50 50 49 48 47 46 45 45
20 28 34 38 39 40 41 41 43 45 45 46 47 47 47 48 49 50 51 53 54 55 56 55 52 50 52 53 52 52 51 49 48 49 50 50 49 48 47 46 45 45
10 14 20 26 32 36 40 42 44 46 47 48 48 48 48 49 50 51 52 53 55 56 57 57 54 50 51 53 53 52 52 51 49 49 50 50 50 48 46 44 44 45
12 11 13 17 22 28 35 41 44 46 47 49 50 51 52 51 52 53 54 54 55 56 57 59 57 52 51 53 53 53 53 52 50 49 50 51 51 50 48 44 42 44
17 15 15 17 18 21 27 34 40 43 45 46 47 49 52 54 54 55 55 55 56 56 57 60 59 54 51 53 53 53 53 52 51 50 51 52 52 52 50 46 42 43
24 23 21 20 21 21 23 26 31 36 40 43 45 46 48 52 55 56 55 55 56 58 58 59 60 56 52 53 53 54 54 53 52 51 51 53 53 53 52 49 45 44
28 28 27 25 25 25 25 25 27 30 33 38 44 48 49 49 51 53 55 56 57 58 59 59 59 57 54 53 54 54 55 54 53 52 52 53 54 53 52 51 48 45
27 28 29 28 27 28 28 27 27 29 31 34 40 46 51 51 49 47 50 53 56 57 58 58 57 56 54 54 54 55 55 54 53 52 53 54 54 54 53 52 50 48
26 27 28 28 27 27 28 28 28 28 30 32 35 40 45 50 51 49 47 49 51 54 55 56 55 54 54 54 55 55 55 54 52 52 54 55 55 55 54 53 52 51